Skip Page Navigation
NASA JPL Caltech
NASA Logo - Jet Propulsion Laboratory + View the NASA Portal
+ Center for Near-Earth Object Studies
JPL Home Earth Solar System Stars & Galaxies Technology
JPL Solar System Dynamics
BODIES ORBITS EPHEMERIDES TOOLS PHYSICAL DATA DISCOVERY FAQ SITE MAP
IMPORTANT: The SSD Announcement email list is now available. Major changes are coming in the near future, including possible hostname and/or URL changes. To be notified of such changes, subscribe to this email list.

Please visit this page for more details.


JPL Small-Body Database Browser
Search: [ help ]  
15617 Fallowfield (2000 HK10)
Classification: Main-belt Asteroid          SPK-ID: 2015617
Ephemeris | Orbit Diagram | Orbital Elements | Mission Design | Physical Parameters | Discovery Circumstances | Close-Approach Data ]

[ show orbit diagram ]
Orbital Elements at Epoch 2458600.5 (2019-Apr-27.0) TDB
Reference: JPL 30 (heliocentric ecliptic J2000)
 Element Value Uncertainty (1-sigma)   Units 
e .1105278202693847 2.8172e-08  
a 2.297682247735676 7.0985e-09 au
q 2.043724437221791 6.434e-08 au
i 2.81354957455665 3.8298e-06 deg
node 193.6032056315228 6.5151e-05 deg
peri 108.0232048862343 6.766e-05 deg
M 97.15069542703084 1.7632e-05 deg
tp 2458257.197636745340
(2018-May-18.69763675)
6.2128e-05 TDB
period 1272.135523358185
3.48
5.8953e-06
1.614e-08
d
yr
n .2829887173103001 1.3114e-09 deg/d
Q 2.55164005824956 7.8831e-09 au
  Orbit Determination Parameters
   # obs. used (total)      1810  
   data-arc span      16839 days (46.10 yr)  
   first obs. used      1973-10-27  
   last obs. used      2019-12-04  
   planetary ephem.      DE431  
   SB-pert. ephem.      SB431-N16  
   condition code      0  
   norm. resid. RMS      .5323  
   source      ORB  
   producer      Otto Matic  
   solution date      2019-Dec-14 00:01:20  

Additional Information
 Earth MOID = 1.02969 au 
 Jupiter MOID = 2.62169 au 
 T_jup = 3.584 
[ show covariance matrix ]

Ephemeris | Orbit Diagram | Orbital Elements | Mission Design | Physical Parameters | Discovery Circumstances | Close-Approach Data ]

Physical Parameter Table
Parameter Symbol Value Units Sigma Reference Notes
absolute magnitude H 14.8   n/a MPO358782  
diameter diameter 2.776 km 0.802 urn:nasa:pds:neowise_diameters_albedos::2.0[mainbelt] (http://adsabs.harvard.edu/abs/2011ApJ...741...68M)  
geometric albedo albedo 0.331   0.133 urn:nasa:pds:neowise_diameters_albedos::2.0[mainbelt] (http://adsabs.harvard.edu/abs/2011ApJ...741...68M)  

15617 Fallowfield           Discovered 2000 Apr. 27 by the Lincoln Laboratory Near-Earth Asteroid Research Team at Socorro.
Named in honor of Heather L. Fallowfield for achievement as a finalist in the 2001 Discovery Young Scientist Challenge (DYSC), a middle school science competition. Heather is a student at the Beech Grove Middle School, Beech Grove, Indiana.
NOTE: some special characters may not display properly (any characters within {} are an attempt to place the proper accent above a character)
Reference: 20011002/MPCPages.arcLast Updated: 2009-05-11

[ show close-approach data ]
Alternate Designations
 2000 HK10 = 1973 US5 = 1997 TA5 = 1998 XH94 
Ephemeris | Orbit Diagram | Orbital Elements | Mission Design | Physical Parameters | Discovery Circumstances | Close-Approach Data ]
ABOUT SSD CREDITS/AWARDS PRIVACY/COPYRIGHT GLOSSARY LINKS
FirstGov 2020-Jan-25 14:31 UT
(server date/time)  
NASA Home Page
Site Manager:   Ryan S. Park
Webmaster  Alan B. Chamberlin